DW9686 Weather Reports


time (UTC)temp
C
wind
direction
speed
KPH
gust
KPH
rain 1hr
cm
rain 24hr
cm
rain mn
cm
humidity
%
barometer
mb
20260506091535 16 0 0.0 0.0 0.00 0.00 0.00 66 1011.2
20260506090032 16 0 0.0 0.0 0.00 0.00 0.00 65 1011.1
20260506084532 16 0 0.0 0.0 0.00 0.00 0.00 65 1011.0
20260506083032 16 0 0.0 0.0 0.00 0.00 0.00 66 1010.9
20260506081539 16 0 0.0 0.0 0.00 0.00 0.00 66 1010.9
20260506073042 16 0 0.0 0.0 0.00 0.00 0.00 69 1010.7
20260506071537 16 0 0.0 0.0 0.00 0.00 0.00 70 1010.8
20260506061531 18 0 0.0 1.6 0.00 0.00 0.00 66 1010.4
20260506044604 19 85 1.6 4.8 0.00 0.00 0.00 63 1010.1
20260506043032 20 0 0.0 0.0 0.00 0.00 0.00 61 1010.0
20260506041531 21 0 0.0 1.6 0.00 0.00 0.00 55 1009.9
20260506040031 21 85 1.6 4.8 0.00 0.00 0.00 54 1009.7
20260506034559 21 0 0.0 0.0 0.00 0.00 0.00 57 1009.6
20260506033032 21 0 0.0 0.0 0.00 0.00 0.00 57 1009.5
20260506031531 22 0 0.0 0.0 0.00 0.00 0.00 57 1009.5
20260506030030 22 0 0.0 3.2 0.00 0.00 0.00 57 1009.4
20260506024533 23 0 1.6 4.8 0.00 0.00 0.00 56 1009.4
20260506023035 24 85 3.2 9.7 0.00 0.00 0.00 54 1009.2
20260506021533 25 76 1.6 4.8 0.00 0.00 0.00 49 1009.4
20260506020031 27 76 3.2 8.0 0.00 0.00 0.00 44 1009.2
20260506014533 28 58 1.6 3.2 0.00 0.00 0.00 33 1009.2
20260506013038 28 0 0.0 6.4 0.00 0.00 0.00 32 1009.2
20260506011532 28 0 0.0 4.8 0.00 0.00 0.00 29 1009.2
20260506010032 28 60 0.0 6.4 0.00 0.00 0.00 29 1009.2
20260506004556 28 57 1.6 9.7 0.00 0.00 0.00 29 1009.4
20260506003045 28 49 4.8 11.3 0.00 0.00 0.00 31 1009.3
20260506001539 28 350 8.0 14.5 0.00 0.00 0.00 31 1009.4
20260506000032 28 51 4.8 11.3 0.00 0.00 0.00 31 1009.7
20260505234555 28 5 4.8 12.9 0.00 0.00 0.00 31 1009.8
20260505233037 28 345 8.0 19.3 0.00 0.00 0.00 30 1009.9
20260505231534 28 298 4.8 14.5 0.00 0.00 0.00 32 1010.0
20260505230040 27 0 3.2 16.1 0.00 0.00 0.00 32 1010.1
20260505224539 28 352 4.8 17.7 0.00 0.00 0.00 34 1010.1
20260505223035 27 28 4.8 12.9 0.00 0.00 0.00 35 1010.4
20260505221532 27 47 4.8 16.1 0.00 0.00 0.00 37 1010.4
20260505220046 27 311 8.0 14.5 0.00 0.00 0.00 37 1010.6
20260505214538 27 44 9.7 16.1 0.00 0.00 0.00 37 1010.8
20260505213036 27 44 4.8 14.5 0.00 0.00 0.00 40 1010.8
20260505211545 26 42 4.8 17.7 0.00 0.00 0.00 43 1010.9
20260505210031 26 332 6.4 17.7 0.00 0.00 0.00 43 1011.0
20260505204535 26 34 8.0 14.5 0.00 0.00 0.00 44 1011.1
20260505203037 26 307 8.0 16.1 0.00 0.00 0.00 44 1011.2
20260505201537 25 326 11.3 17.7 0.00 0.00 0.00 45 1011.2
20260505200035 25 309 11.3 20.9 0.00 0.00 0.00 46 1011.4
20260505194536 25 299 6.4 16.1 0.00 0.00 0.00 50 1011.3
20260505193041 24 330 6.4 17.7 0.00 0.00 0.00 51 1011.4
20260505191544 23 284 8.0 16.1 0.00 0.00 0.00 54 1011.5
20260505190035 23 288 8.0 16.1 0.00 0.00 0.00 54 1011.6
20260505184535 22 322 8.0 16.1 0.00 0.00 0.00 55 1011.7
20260505183032 22 302 9.7 16.1 0.00 0.00 0.00 56 1011.7
20260505181534 22 309 6.4 14.5 0.00 0.00 0.00 57 1011.7
20260505180044 21 318 8.0 16.1 0.00 0.00 0.00 58 1011.7
20260505174539 21 329 8.0 16.1 0.00 0.00 0.00 61 1011.7
20260505173036 20 313 8.0 12.9 0.00 0.00 0.00 59 1011.7
20260505171535 20 331 8.0 22.5 0.00 0.00 0.00 61 1011.6
20260505170035 19 345 6.4 12.9 0.00 0.00 0.00 63 1011.6
20260505164532 18 346 3.2 12.9 0.00 0.00 0.00 64 1011.6
20260505163040 18 346 4.8 9.7 0.00 0.00 0.00 65 1011.5
20260505161535 18 346 4.8 12.9 0.00 0.00 0.00 64 1011.4
20260505153046 16 346 4.8 12.9 0.00 0.00 0.00 66 1011.1
20260505151539 16 346 4.8 12.9 0.00 0.00 0.00 66 1011.0
20260505124535 12 332 6.4 12.9 0.00 0.00 0.00 74 1009.2
20260505123051 12 332 4.8 12.9 0.00 0.00 0.00 74 1009.0
20260505121530 12 328 6.4 16.1 0.00 0.00 0.00 75 1008.9
20260505120035 12 313 6.4 12.9 0.00 0.00 0.00 75 1008.8
20260505114543 12 311 4.8 9.7 0.00 0.00 0.00 74 1008.6
20260505113037 12 311 4.8 12.9 0.00 0.00 0.00 75 1008.4
20260505111551 12 306 6.4 12.9 0.00 0.00 0.00 74 1008.3
20260505101536 14 306 3.2 8.0 0.00 0.00 0.00 73 1007.7
20260505100035 14 306 3.2 6.4 0.00 0.00 0.00 73 1007.4
20260505094530 14 306 4.8 6.4 0.00 0.00 0.00 73 1007.3
20260505093036 15 306 3.2 6.4 0.00 0.00 0.00 71 1007.2